Time,TemperatureF,DewpointF,PressureIn,WindDirection,WindDirectionDegrees,WindSpeedMPH,WindSpeedGustMPH,Humidity,HourlyPrecipIn,Conditions,Clouds,dailyrainin,SoftwareType,DateUTC
2013-10-08 00:02:00,61.5,55.7,29.86,North,0,0.0,5.0,81,-99.99,,,-99.99,PWS SA v1.10,2013-10-08 04:02:00,
2013-10-08 00:06:00,61.4,56.1,29.87,North,0,0.0,5.0,84,-99.99,,,-99.99,PWS SA v1.10,2013-10-08 04:06:00,
2013-10-08 00:08:00,61.4,55.7,29.87,North,0,0.0,5.0,83,-99.99,,,-99.99,PWS SA v1.10,2013-10-08 04:08:00,
2013-10-08 00:12:00,61.5,55.7,29.87,North,0,0.0,3.0,82,-99.99,,,-99.99,PWS SA v1.10,2013-10-08 04:12:00,
2013-10-08 00:14:00,61.4,55.6,29.87,NW,309,1.7,3.0,82,-99.99,,,-99.99,PWS SA v1.10,2013-10-08 04:14:00,
2013-10-08 00:20:00,61.4,55.1,29.87,North,0,0.0,1.0,81,-99.99,,,-99.99,PWS SA v1.10,2013-10-08 04:20:00,
2013-10-08 00:26:00,61.2,55.1,29.87,North,0,0.0,5.0,81,-99.99,,,-99.99,PWS SA v1.10,2013-10-08 04:26:00,
2013-10-08 00:32:00,61.2,55.4,29.88,North,0,0.0,5.0,82,-99.99,,,-99.99,PWS SA v1.10,2013-10-08 04:32:00,
2013-10-08 00:38:00,61.2,55.1,29.87,North,0,0.0,1.0,81,-99.99,,,-99.99,PWS SA v1.10,2013-10-08 04:38:00,
2013-10-08 00:44:00,61.3,55.0,29.88,North,0,0.0,3.0,81,-99.99,,,-99.99,PWS SA v1.10,2013-10-08 04:44:00,
2013-10-08 00:50:00,61.0,55.2,29.88,North,0,0.0,3.0,82,-99.99,,,-99.99,PWS SA v1.10,2013-10-08 04:50:00,
2013-10-08 00:56:00,60.9,54.4,29.88,North,0,0.0,3.0,80,-99.99,,,-99.99,PWS SA v1.10,2013-10-08 04:56:00,
2013-10-08 01:02:00,60.9,55.0,29.89,North,0,0.0,1.0,81,-99.99,,,-99.99,PWS SA v1.10,2013-10-08 05:02:00,
2013-10-08 01:08:00,60.5,54.0,29.89,North,0,0.0,3.0,80,-99.99,,,-99.99,PWS SA v1.10,2013-10-08 05:08:00,
2013-10-08 01:14:00,60.3,54.9,29.89,North,0,0.0,3.0,83,-99.99,,,-99.99,PWS SA v1.10,2013-10-08 05:14:00,
2013-10-08 01:20:00,60.0,54.4,29.89,North,0,0.0,0.0,83,-99.99,,,-99.99,PWS SA v1.10,2013-10-08 05:20:00,
2013-10-08 01:26:00,59.9,53.9,29.89,North,0,0.0,3.0,81,-99.99,,,-99.99,PWS SA v1.10,2013-10-08 05:26:00,
2013-10-08 01:32:00,59.7,53.1,29.89,West,274,1.7,3.0,80,-99.99,,,-99.99,PWS SA v1.10,2013-10-08 05:32:00,
2013-10-08 01:38:00,59.7,54.4,29.90,North,0,0.0,3.0,83,-99.99,,,-99.99,PWS SA v1.10,2013-10-08 05:38:00,
2013-10-08 01:44:00,59.5,53.2,29.90,North,0,0.0,3.0,80,-99.99,,,-99.99,PWS SA v1.10,2013-10-08 05:44:00,
2013-10-08 01:50:00,59.4,54.4,29.90,North,0,0.0,3.0,84,-99.99,,,-99.99,PWS SA v1.10,2013-10-08 05:50:00,
2013-10-08 01:56:00,59.1,53.6,29.90,West,267,1.7,3.0,82,-99.99,,,-99.99,PWS SA v1.10,2013-10-08 05:56:00,
2013-10-08 02:02:00,59.1,53.7,29.91,North,0,0.0,5.0,83,-99.99,,,-99.99,PWS SA v1.10,2013-10-08 06:02:00,
2013-10-08 02:08:00,59.1,52.9,29.91,North,0,0.0,5.0,81,-99.99,,,-99.99,PWS SA v1.10,2013-10-08 06:08:00,
2013-10-08 02:14:00,59.0,52.7,29.91,North,0,0.0,1.0,80,-99.99,,,-99.99,PWS SA v1.10,2013-10-08 06:14:00,
2013-10-08 02:20:00,58.6,53.4,29.91,North,0,0.0,0.0,84,-99.99,,,-99.99,PWS SA v1.10,2013-10-08 06:20:00,
2013-10-08 02:26:00,58.6,53.6,29.91,North,0,0.0,0.0,84,-99.99,,,-99.99,PWS SA v1.10,2013-10-08 06:26:00,
2013-10-08 02:32:00,58.3,52.9,29.91,North,0,0.0,0.0,83,-99.99,,,-99.99,PWS SA v1.10,2013-10-08 06:32:00,
2013-10-08 02:38:00,58.0,52.7,29.92,NW,311,5.1,5.1,83,-99.99,,,-99.99,PWS SA v1.10,2013-10-08 06:38:00,
2013-10-08 02:44:00,57.9,52.2,29.92,North,0,0.0,5.0,81,-99.99,,,-99.99,PWS SA v1.10,2013-10-08 06:44:00,
2013-10-08 02:50:00,57.9,52.5,29.92,North,0,0.0,5.0,83,-99.99,,,-99.99,PWS SA v1.10,2013-10-08 06:50:00,
2013-10-08 02:56:00,57.6,52.1,29.92,North,0,0.0,1.0,83,-99.99,,,-99.99,PWS SA v1.10,2013-10-08 06:56:00,
2013-10-08 03:02:00,57.4,51.2,29.93,North,362,1.7,1.7,80,-99.99,,,-99.99,PWS SA v1.10,2013-10-08 07:02:00,
2013-10-08 03:08:00,57.4,51.2,29.93,North,0,0.0,1.0,80,-99.99,,,-99.99,PWS SA v1.10,2013-10-08 07:08:00,
2013-10-08 03:14:00,57.1,50.7,29.93,North,0,0.0,1.0,79,-99.99,,,-99.99,PWS SA v1.10,2013-10-08 07:14:00,
2013-10-08 03:20:00,56.9,50.0,29.93,North,0,0.0,1.0,78,-99.99,,,-99.99,PWS SA v1.10,2013-10-08 07:20:00,
2013-10-08 03:26:00,56.9,50.1,29.93,North,0,0.0,0.0,78,-99.99,,,-99.99,PWS SA v1.10,2013-10-08 07:26:00,
2013-10-08 03:32:00,56.9,50.1,29.94,North,0,0.0,0.0,78,-99.99,,,-99.99,PWS SA v1.10,2013-10-08 07:32:00,
2013-10-08 03:38:00,56.5,49.7,29.94,NW,308,3.4,3.4,78,-99.99,,,-99.99,PWS SA v1.10,2013-10-08 07:38:00,
2013-10-08 03:44:00,56.4,50.2,29.95,North,0,0.0,3.0,80,-99.99,,,-99.99,PWS SA v1.10,2013-10-08 07:44:00,
2013-10-08 03:50:00,56.4,50.1,29.95,North,0,0.0,3.0,80,-99.99,,,-99.99,PWS SA v1.10,2013-10-08 07:50:00,
2013-10-08 03:56:00,56.2,49.9,29.95,North,0,0.0,0.0,79,-99.99,,,-99.99,PWS SA v1.10,2013-10-08 07:56:00,
2013-10-08 04:02:00,56.3,50.4,29.96,North,0,0.0,0.0,81,-99.99,,,-99.99,PWS SA v1.10,2013-10-08 08:02:00,
2013-10-08 04:08:00,56.1,50.3,29.96,North,0,0.0,0.0,81,-99.99,,,-99.99,PWS SA v1.10,2013-10-08 08:08:00,
2013-10-08 04:14:00,55.9,49.6,29.96,North,0,0.0,0.0,80,-99.99,,,-99.99,PWS SA v1.10,2013-10-08 08:14:00,
2013-10-08 04:20:00,55.9,50.0,29.96,North,0,0.0,5.0,82,-99.99,,,-99.99,PWS SA v1.10,2013-10-08 08:20:00,
2013-10-08 04:26:00,55.6,49.1,29.96,North,0,0.0,5.0,80,-99.99,,,-99.99,PWS SA v1.10,2013-10-08 08:26:00,
2013-10-08 04:32:00,55.5,49.2,29.96,North,0,0.0,5.0,80,-99.99,,,-99.99,PWS SA v1.10,2013-10-08 08:32:00,
2013-10-08 04:38:00,55.6,49.5,29.96,North,0,0.0,5.0,80,-99.99,,,-99.99,PWS SA v1.10,2013-10-08 08:38:00,
2013-10-08 04:44:00,55.9,49.0,29.96,NNW,332,5.1,5.1,78,-99.99,,,-99.99,PWS SA v1.10,2013-10-08 08:44:00,
2013-10-08 04:50:00,55.5,49.7,29.97,North,0,0.0,5.0,81,-99.99,,,-99.99,PWS SA v1.10,2013-10-08 08:50:00,
2013-10-08 04:56:00,55.4,49.1,29.97,North,0,0.0,5.0,80,-99.99,,,-99.99,PWS SA v1.10,2013-10-08 08:56:00,
2013-10-08 05:02:00,55.4,49.9,29.97,North,0,0.0,5.0,82,-99.99,,,-99.99,PWS SA v1.10,2013-10-08 09:02:00,
2013-10-08 05:08:00,55.5,48.8,29.98,North,0,0.0,3.0,79,-99.99,,,-99.99,PWS SA v1.10,2013-10-08 09:08:00,
2013-10-08 05:14:00,55.4,49.7,29.98,North,0,0.0,3.0,82,-99.99,,,-99.99,PWS SA v1.10,2013-10-08 09:14:00,
2013-10-08 05:20:00,55.1,49.3,29.99,North,0,0.0,3.0,82,-99.99,,,-99.99,PWS SA v1.10,2013-10-08 09:20:00,
2013-10-08 05:26:00,55.0,49.4,29.98,North,0,0.0,0.0,83,-99.99,,,-99.99,PWS SA v1.10,2013-10-08 09:26:00,
2013-10-08 05:32:00,55.0,50.2,29.99,North,0,0.0,0.0,84,-99.99,,,-99.99,PWS SA v1.10,2013-10-08 09:32:00,
2013-10-08 05:38:00,54.6,49.6,30.00,SSW,199,1.7,1.7,83,-99.99,,,-99.99,PWS SA v1.10,2013-10-08 09:38:00,
2013-10-08 05:44:00,54.6,50.2,30.01,North,0,0.0,1.0,85,-99.99,,,-99.99,PWS SA v1.10,2013-10-08 09:44:00,
2013-10-08 05:50:00,54.6,49.4,30.01,North,0,0.0,1.0,83,-99.99,,,-99.99,PWS SA v1.10,2013-10-08 09:50:00,
2013-10-08 05:56:00,54.3,49.5,30.01,North,0,0.0,1.0,84,-99.99,,,-99.99,PWS SA v1.10,2013-10-08 09:56:00,
2013-10-08 06:02:00,54.3,49.7,30.00,North,0,0.0,1.0,85,-99.99,,,-99.99,PWS SA v1.10,2013-10-08 10:02:00,
2013-10-08 06:08:00,54.1,49.1,30.02,North,0,0.0,1.0,84,-99.99,,,-99.99,PWS SA v1.10,2013-10-08 10:08:00,
2013-10-08 06:14:00,53.9,49.0,30.02,North,0,0.0,1.0,84,-99.99,,,-99.99,PWS SA v1.10,2013-10-08 10:14:00,
2013-10-08 06:20:00,54.0,48.8,30.02,North,0,0.0,0.0,83,-99.99,,,-99.99,PWS SA v1.10,2013-10-08 10:20:00,
2013-10-08 06:26:00,53.8,48.5,30.02,WNW,299,3.4,3.4,82,-99.99,,,-99.99,PWS SA v1.10,2013-10-08 10:26:00,
2013-10-08 06:32:00,54.0,49.2,30.03,North,0,0.0,3.0,84,-99.99,,,-99.99,PWS SA v1.10,2013-10-08 10:32:00,
2013-10-08 06:38:00,53.8,48.6,30.03,North,0,0.0,5.0,83,-99.99,,,-99.99,PWS SA v1.10,2013-10-08 10:38:00,
2013-10-08 06:44:00,53.8,48.9,30.04,North,0,0.0,5.0,84,-99.99,,,-99.99,PWS SA v1.10,2013-10-08 10:44:00,
2013-10-08 06:50:00,53.7,48.3,30.04,North,0,0.0,5.0,82,-99.99,,,-99.99,PWS SA v1.10,2013-10-08 10:50:00,
2013-10-08 06:56:00,53.6,48.9,30.04,North,0,0.0,0.0,84,-99.99,,,-99.99,PWS SA v1.10,2013-10-08 10:56:00,
2013-10-08 07:02:00,53.5,49.6,30.04,North,0,0.0,0.0,88,-99.99,,,-99.99,PWS SA v1.10,2013-10-08 11:02:00,
2013-10-08 07:08:00,53.4,49.2,30.05,North,0,0.0,0.0,86,-99.99,,,-99.99,PWS SA v1.10,2013-10-08 11:08:00,
2013-10-08 07:14:00,53.4,49.2,30.06,North,0,0.0,0.0,86,-99.99,,,-99.99,PWS SA v1.10,2013-10-08 11:14:00,
2013-10-08 07:20:00,53.3,48.5,30.06,North,0,0.0,0.0,84,-99.99,,,-99.99,PWS SA v1.10,2013-10-08 11:20:00,
2013-10-08 07:26:00,53.3,48.4,30.07,North,0,0.0,0.0,84,-99.99,,,-99.99,PWS SA v1.10,2013-10-08 11:26:00,
2013-10-08 07:32:00,53.4,48.9,30.06,North,0,0.0,0.0,85,-99.99,,,-99.99,PWS SA v1.10,2013-10-08 11:32:00,
2013-10-08 07:38:00,53.4,48.9,30.07,North,0,0.0,0.0,85,-99.99,,,-99.99,PWS SA v1.10,2013-10-08 11:38:00,
2013-10-08 07:44:00,53.5,49.6,30.07,North,0,0.0,0.0,87,-99.99,,,-99.99,PWS SA v1.10,2013-10-08 11:44:00,
2013-10-08 07:50:00,53.4,49.4,30.08,North,0,0.0,0.0,87,-99.99,,,-99.99,PWS SA v1.10,2013-10-08 11:50:00,
2013-10-08 07:56:00,53.5,49.2,30.08,North,0,0.0,0.0,87,-99.99,,,-99.99,PWS SA v1.10,2013-10-08 11:56:00,
2013-10-08 08:02:00,53.5,49.2,30.09,North,0,0.0,0.0,87,-99.99,,,-99.99,PWS SA v1.10,2013-10-08 12:02:00,
2013-10-08 08:08:00,53.5,50.1,30.09,North,0,0.0,0.0,88,-99.99,,,-99.99,PWS SA v1.10,2013-10-08 12:08:00,
2013-10-08 08:14:00,53.3,48.8,30.09,North,0,0.0,0.0,86,-99.99,,,-99.99,PWS SA v1.10,2013-10-08 12:14:00,
2013-10-08 08:20:00,53.4,49.7,30.10,North,0,0.0,0.0,87,-99.99,,,-99.99,PWS SA v1.10,2013-10-08 12:20:00,
2013-10-08 08:26:00,53.6,49.8,30.10,North,0,0.0,0.0,87,-99.99,,,-99.99,PWS SA v1.10,2013-10-08 12:26:00,
2013-10-08 08:32:00,53.7,49.4,30.10,NNW,332,1.7,3.0,86,-99.99,,,-99.99,PWS SA v1.10,2013-10-08 12:32:00,
2013-10-08 08:38:00,53.9,49.7,30.10,North,0,0.0,3.0,87,-99.99,,,-99.99,PWS SA v1.10,2013-10-08 12:38:00,
2013-10-08 08:44:00,53.9,49.6,30.11,North,0,0.0,3.0,86,-99.99,,,-99.99,PWS SA v1.10,2013-10-08 12:44:00,
2013-10-08 08:50:00,54.2,49.6,30.11,North,0,0.0,0.0,85,-99.99,,,-99.99,PWS SA v1.10,2013-10-08 12:50:00,
2013-10-08 08:56:00,54.6,49.5,30.11,North,0,0.0,3.0,85,-99.99,,,-99.99,PWS SA v1.10,2013-10-08 12:56:00,
2013-10-08 09:02:00,54.7,50.0,30.12,North,0,0.0,3.0,85,-99.99,,,-99.99,PWS SA v1.10,2013-10-08 13:02:00,
2013-10-08 09:08:00,55.1,49.6,30.12,North,0,0.0,1.0,82,-99.99,,,-99.99,PWS SA v1.10,2013-10-08 13:08:00,
2013-10-08 09:14:00,55.4,50.1,30.13,North,0,0.0,0.0,84,-99.99,,,-99.99,PWS SA v1.10,2013-10-08 13:14:00,
2013-10-08 09:20:00,55.7,49.9,30.13,North,0,0.0,1.0,81,-99.99,,,-99.99,PWS SA v1.10,2013-10-08 13:20:00,
2013-10-08 09:26:00,55.9,49.7,30.12,North,0,0.0,1.0,80,-99.99,,,-99.99,PWS SA v1.10,2013-10-08 13:26:00,
2013-10-08 09:32:00,56.1,49.5,30.13,North,0,0.0,1.0,80,-99.99,,,-99.99,PWS SA v1.10,2013-10-08 13:32:00,
2013-10-08 09:38:00,56.4,49.5,30.13,North,0,0.0,3.0,79,-99.99,,,-99.99,PWS SA v1.10,2013-10-08 13:38:00,
2013-10-08 09:44:00,56.6,49.7,30.14,North,0,0.0,3.0,78,-99.99,,,-99.99,PWS SA v1.10,2013-10-08 13:44:00,
2013-10-08 09:50:00,57.0,49.6,30.13,North,0,0.0,3.0,77,-99.99,,,-99.99,PWS SA v1.10,2013-10-08 13:50:00,
2013-10-08 09:56:00,57.4,49.6,30.14,NNW,338,3.4,3.4,76,-99.99,,,-99.99,PWS SA v1.10,2013-10-08 13:56:00,
2013-10-08 10:02:00,57.7,48.4,30.14,North,0,0.0,3.0,72,-99.99,,,-99.99,PWS SA v1.10,2013-10-08 14:02:00,
2013-10-08 10:08:00,57.9,48.4,30.14,North,0,0.0,3.0,71,-99.99,,,-99.99,PWS SA v1.10,2013-10-08 14:08:00,
2013-10-08 10:14:00,58.0,47.7,30.14,North,0,0.0,3.0,69,-99.99,,,-99.99,PWS SA v1.10,2013-10-08 14:14:00,
2013-10-08 10:20:00,58.0,48.2,30.14,South,172,1.7,3.0,70,-99.99,,,-99.99,PWS SA v1.10,2013-10-08 14:20:00,
2013-10-08 10:26:00,58.2,48.1,30.14,North,0,0.0,1.0,70,-99.99,,,-99.99,PWS SA v1.10,2013-10-08 14:26:00,
2013-10-08 10:32:00,58.3,47.9,30.15,North,0,0.0,3.0,68,-99.99,,,-99.99,PWS SA v1.10,2013-10-08 14:32:00,
2013-10-08 10:38:00,58.7,48.7,30.15,North,0,0.0,3.0,70,-99.99,,,-99.99,PWS SA v1.10,2013-10-08 14:38:00,
2013-10-08 10:44:00,59.0,48.7,30.15,WSW,243,3.4,3.4,70,-99.99,,,-99.99,PWS SA v1.10,2013-10-08 14:44:00,
2013-10-08 10:50:00,59.0,48.5,30.15,North,9,5.1,5.1,70,-99.99,,,-99.99,PWS SA v1.10,2013-10-08 14:50:00,
2013-10-08 10:56:00,59.5,48.3,30.15,North,0,0.0,5.0,68,-99.99,,,-99.99,PWS SA v1.10,2013-10-08 14:56:00,
2013-10-08 11:02:00,59.7,48.5,30.15,North,0,0.0,5.0,67,-99.99,,,-99.99,PWS SA v1.10,2013-10-08 15:02:00,
2013-10-08 11:08:00,60.2,47.2,30.15,North,0,0.0,3.0,64,-99.99,,,-99.99,PWS SA v1.10,2013-10-08 15:08:00,
2013-10-08 11:14:00,60.2,48.6,30.15,North,0,0.0,3.0,67,-99.99,,,-99.99,PWS SA v1.10,2013-10-08 15:14:00,
2013-10-08 11:20:00,60.5,48.3,30.16,North,0,0.0,3.0,66,-99.99,,,-99.99,PWS SA v1.10,2013-10-08 15:20:00,
2013-10-08 11:26:00,60.5,47.9,30.15,North,0,0.0,3.0,65,-99.99,,,-99.99,PWS SA v1.10,2013-10-08 15:26:00,
2013-10-08 11:32:00,60.5,47.7,30.16,North,353,3.4,3.4,64,-99.99,,,-99.99,PWS SA v1.10,2013-10-08 15:32:00,
2013-10-08 11:38:00,60.8,48.0,30.15,North,0,0.0,3.0,64,-99.99,,,-99.99,PWS SA v1.10,2013-10-08 15:38:00,
2013-10-08 11:44:00,60.9,48.8,30.16,NW,309,3.4,3.4,66,-99.99,,,-99.99,PWS SA v1.10,2013-10-08 15:44:00,
2013-10-08 11:50:00,61.0,48.0,30.16,WNW,296,1.7,3.0,63,-99.99,,,-99.99,PWS SA v1.10,2013-10-08 15:50:00,
2013-10-08 11:56:00,61.6,48.6,30.15,North,0,0.0,3.0,64,-99.99,,,-99.99,PWS SA v1.10,2013-10-08 15:56:00,
2013-10-08 12:02:00,62.4,50.3,30.15,North,0,0.0,3.0,66,-99.99,,,-99.99,PWS SA v1.10,2013-10-08 16:02:00,
2013-10-08 12:08:00,62.4,47.7,30.16,North,0,0.0,3.0,60,-99.99,,,-99.99,PWS SA v1.10,2013-10-08 16:08:00,
2013-10-08 12:14:00,62.8,49.0,30.15,NNW,334,1.7,3.0,61,-99.99,,,-99.99,PWS SA v1.10,2013-10-08 16:14:00,
2013-10-08 12:20:00,62.8,47.7,30.16,North,0,0.0,1.0,59,-99.99,,,-99.99,PWS SA v1.10,2013-10-08 16:20:00,
2013-10-08 12:26:00,63.4,49.0,30.16,North,0,0.0,1.0,61,-99.99,,,-99.99,PWS SA v1.10,2013-10-08 16:26:00,
2013-10-08 12:32:00,63.0,48.9,30.16,North,0,0.0,1.0,61,-99.99,,,-99.99,PWS SA v1.10,2013-10-08 16:32:00,
2013-10-08 12:38:00,63.6,48.9,30.16,NNW,334,1.7,5.0,60,-99.99,,,-99.99,PWS SA v1.10,2013-10-08 16:38:00,
2013-10-08 12:44:00,63.3,48.5,30.15,WNW,289,1.7,5.0,60,-99.99,,,-99.99,PWS SA v1.10,2013-10-08 16:44:00,
2013-10-08 12:50:00,63.1,46.9,30.16,East,96,5.1,5.1,56,-99.99,,,-99.99,PWS SA v1.10,2013-10-08 16:50:00,
2013-10-08 12:56:00,63.3,47.6,30.17,North,0,0.0,5.0,58,-99.99,,,-99.99,PWS SA v1.10,2013-10-08 16:56:00,
2013-10-08 13:02:00,63.5,47.8,30.16,North,0,0.0,5.0,58,-99.99,,,-99.99,PWS SA v1.10,2013-10-08 17:02:00,
2013-10-08 13:08:00,63.6,47.9,30.17,North,0,0.0,3.0,58,-99.99,,,-99.99,PWS SA v1.10,2013-10-08 17:08:00,
2013-10-08 13:14:00,63.6,47.9,30.15,East,99,3.4,5.0,58,-99.99,,,-99.99,PWS SA v1.10,2013-10-08 17:14:00,
2013-10-08 13:20:00,63.4,48.0,30.15,North,0,0.0,5.0,58,-99.99,,,-99.99,PWS SA v1.10,2013-10-08 17:20:00,
2013-10-08 13:26:00,63.6,46.3,30.15,NNW,333,3.4,3.4,55,-99.99,,,-99.99,PWS SA v1.10,2013-10-08 17:26:00,
2013-10-08 13:32:00,63.3,46.8,30.16,North,0,0.0,3.0,56,-99.99,,,-99.99,PWS SA v1.10,2013-10-08 17:32:00,
2013-10-08 13:38:00,63.5,45.2,30.16,North,0,0.0,3.0,53,-99.99,,,-99.99,PWS SA v1.10,2013-10-08 17:38:00,
2013-10-08 13:44:00,63.7,46.1,30.15,North,0,0.0,1.0,54,-99.99,,,-99.99,PWS SA v1.10,2013-10-08 17:44:00,
2013-10-08 13:50:00,63.8,46.6,30.15,NW,317,1.7,1.7,55,-99.99,,,-99.99,PWS SA v1.10,2013-10-08 17:50:00,
2013-10-08 13:56:00,64.0,46.4,30.15,WNW,292,3.4,3.4,54,-99.99,,,-99.99,PWS SA v1.10,2013-10-08 17:56:00,
2013-10-08 14:02:00,64.2,46.0,30.15,NW,309,12.0,12.0,52,-99.99,,,-99.99,PWS SA v1.10,2013-10-08 18:02:00,
2013-10-08 14:08:00,64.7,46.8,30.14,North,0,0.0,12.0,54,-99.99,,,-99.99,PWS SA v1.10,2013-10-08 18:08:00,
2013-10-08 14:14:00,65.0,47.7,30.15,NNW,348,1.7,12.0,55,-99.99,,,-99.99,PWS SA v1.10,2013-10-08 18:14:00,
2013-10-08 14:20:00,65.1,47.3,30.15,West,264,1.7,5.0,53,-99.99,,,-99.99,PWS SA v1.10,2013-10-08 18:20:00,
2013-10-08 14:26:00,65.3,47.4,30.15,North,0,0.0,5.0,54,-99.99,,,-99.99,PWS SA v1.10,2013-10-08 18:26:00,
2013-10-08 14:32:00,66.0,48.3,30.16,North,0,0.0,5.0,54,-99.99,,,-99.99,PWS SA v1.10,2013-10-08 18:32:00,
2013-10-08 14:38:00,66.5,47.8,30.17,North,0,0.0,5.0,52,-99.99,,,-99.99,PWS SA v1.10,2013-10-08 18:38:00,
2013-10-08 14:44:00,66.0,47.6,30.16,WNW,299,1.7,5.0,53,-99.99,,,-99.99,PWS SA v1.10,2013-10-08 18:44:00,
2013-10-08 14:50:00,66.7,48.5,30.16,NW,305,1.7,3.0,53,-99.99,,,-99.99,PWS SA v1.10,2013-10-08 18:50:00,
2013-10-08 14:56:00,68.0,47.7,30.16,North,0,0.0,3.0,50,-99.99,,,-99.99,PWS SA v1.10,2013-10-08 18:56:00,
2013-10-08 15:02:00,67.6,49.0,30.16,North,0,0.0,3.0,53,-99.99,,,-99.99,PWS SA v1.10,2013-10-08 19:02:00,
2013-10-08 15:08:00,67.6,47.2,30.17,North,0,0.0,3.0,49,-99.99,,,-99.99,PWS SA v1.10,2013-10-08 19:08:00,
2013-10-08 15:14:00,68.5,49.8,30.17,North,0,0.0,3.0,54,-99.99,,,-99.99,PWS SA v1.10,2013-10-08 19:14:00,
2013-10-08 15:20:00,68.5,48.5,30.17,North,0,0.0,3.0,51,-99.99,,,-99.99,PWS SA v1.10,2013-10-08 19:20:00,
2013-10-08 15:26:00,68.5,50.2,30.17,North,0,0.0,1.0,54,-99.99,,,-99.99,PWS SA v1.10,2013-10-08 19:26:00,
2013-10-08 15:32:00,68.5,48.9,30.17,North,0,0.0,0.0,51,-99.99,,,-99.99,PWS SA v1.10,2013-10-08 19:32:00,
2013-10-08 15:38:00,67.7,49.4,30.17,North,0,0.0,1.0,53,-99.99,,,-99.99,PWS SA v1.10,2013-10-08 19:38:00,
2013-10-08 15:44:00,66.5,46.9,30.17,ENE,61,1.7,5.0,51,-99.99,,,-99.99,PWS SA v1.10,2013-10-08 19:44:00,
2013-10-08 15:50:00,65.3,47.9,30.17,North,0,0.0,5.0,54,-99.99,,,-99.99,PWS SA v1.10,2013-10-08 19:50:00,
2013-10-08 15:56:00,64.7,49.5,30.18,North,0,0.0,3.0,60,-99.99,,,-99.99,PWS SA v1.10,2013-10-08 19:56:00,
2013-10-08 16:02:00,64.3,47.3,30.18,North,0,0.0,3.0,55,-99.99,,,-99.99,PWS SA v1.10,2013-10-08 20:02:00,
2013-10-08 16:08:00,64.3,47.3,30.18,North,0,0.0,1.0,55,-99.99,,,-99.99,PWS SA v1.10,2013-10-08 20:08:00,
2013-10-08 16:14:00,64.3,45.6,30.19,North,0,0.0,1.0,52,-99.99,,,-99.99,PWS SA v1.10,2013-10-08 20:14:00,
2013-10-08 16:20:00,64.1,45.2,30.19,North,0,0.0,1.0,52,-99.99,,,-99.99,PWS SA v1.10,2013-10-08 20:20:00,
2013-10-08 16:26:00,63.7,46.4,30.19,North,0,0.0,1.0,55,-99.99,,,-99.99,PWS SA v1.10,2013-10-08 20:26:00,
2013-10-08 16:32:00,62.9,46.8,30.19,North,0,0.0,3.0,57,-99.99,,,-99.99,PWS SA v1.10,2013-10-08 20:32:00,
2013-10-08 16:38:00,62.4,49.5,30.20,North,0,0.0,3.0,64,-99.99,,,-99.99,PWS SA v1.10,2013-10-08 20:38:00,
2013-10-08 16:44:00,62.1,47.6,30.20,North,0,0.0,3.0,60,-99.99,,,-99.99,PWS SA v1.10,2013-10-08 20:44:00,
2013-10-08 16:50:00,62.1,47.5,30.20,North,0,0.0,0.0,61,-99.99,,,-99.99,PWS SA v1.10,2013-10-08 20:50:00,
2013-10-08 16:56:00,61.9,48.6,30.20,North,0,0.0,0.0,63,-99.99,,,-99.99,PWS SA v1.10,2013-10-08 20:56:00,
2013-10-08 17:02:00,61.5,47.9,30.20,North,0,0.0,1.0,63,-99.99,,,-99.99,PWS SA v1.10,2013-10-08 21:02:00,
2013-10-08 17:08:00,61.2,48.0,30.20,North,0,0.0,1.0,63,-99.99,,,-99.99,PWS SA v1.10,2013-10-08 21:08:00,
2013-10-08 17:14:00,60.9,48.0,30.20,North,0,0.0,0.0,64,-99.99,,,-99.99,PWS SA v1.10,2013-10-08 21:14:00,
2013-10-08 17:20:00,60.5,48.2,30.20,North,0,0.0,0.0,66,-99.99,,,-99.99,PWS SA v1.10,2013-10-08 21:20:00,
2013-10-08 17:26:00,60.1,48.6,30.21,North,0,0.0,0.0,68,-99.99,,,-99.99,PWS SA v1.10,2013-10-08 21:26:00,
2013-10-08 17:32:00,59.5,48.5,30.21,North,0,0.0,0.0,68,-99.99,,,-99.99,PWS SA v1.10,2013-10-08 21:32:00,
2013-10-08 17:38:00,59.1,48.8,30.22,North,0,0.0,0.0,71,-99.99,,,-99.99,PWS SA v1.10,2013-10-08 21:38:00,
2013-10-08 17:44:00,58.7,49.2,30.21,North,0,0.0,0.0,73,-99.99,,,-99.99,PWS SA v1.10,2013-10-08 21:44:00,
2013-10-08 17:50:00,58.3,48.6,30.22,North,0,0.0,0.0,72,-99.99,,,-99.99,PWS SA v1.10,2013-10-08 21:50:00,
2013-10-08 17:56:00,57.9,47.0,30.22,North,0,0.0,0.0,69,-99.99,,,-99.99,PWS SA v1.10,2013-10-08 21:56:00,
2013-10-08 18:02:00,57.7,47.3,30.22,North,0,0.0,0.0,70,-99.99,,,-99.99,PWS SA v1.10,2013-10-08 22:02:00,
2013-10-08 18:08:00,57.3,47.0,30.22,North,0,0.0,0.0,70,-99.99,,,-99.99,PWS SA v1.10,2013-10-08 22:08:00,
2013-10-08 18:14:00,56.9,46.0,30.22,North,0,0.0,0.0,68,-99.99,,,-99.99,PWS SA v1.10,2013-10-08 22:14:00,
2013-10-08 18:20:00,56.5,46.3,30.23,North,0,0.0,0.0,70,-99.99,,,-99.99,PWS SA v1.10,2013-10-08 22:20:00,
2013-10-08 18:26:00,56.1,46.4,30.23,North,0,0.0,0.0,72,-99.99,,,-99.99,PWS SA v1.10,2013-10-08 22:26:00,
2013-10-08 18:32:00,55.7,46.9,30.23,North,0,0.0,0.0,74,-99.99,,,-99.99,PWS SA v1.10,2013-10-08 22:32:00,
2013-10-08 18:38:00,55.3,46.2,30.24,North,0,0.0,0.0,74,-99.99,,,-99.99,PWS SA v1.10,2013-10-08 22:38:00,
2013-10-08 18:44:00,55.2,46.6,30.24,North,0,0.0,0.0,75,-99.99,,,-99.99,PWS SA v1.10,2013-10-08 22:44:00,
2013-10-08 18:50:00,54.9,46.1,30.24,North,0,0.0,0.0,75,-99.99,,,-99.99,PWS SA v1.10,2013-10-08 22:50:00,
2013-10-08 18:56:00,54.5,46.0,30.24,North,0,0.0,0.0,75,-99.99,,,-99.99,PWS SA v1.10,2013-10-08 22:56:00,
2013-10-08 19:02:00,54.3,46.3,30.24,North,0,0.0,0.0,76,-99.99,,,-99.99,PWS SA v1.10,2013-10-08 23:02:00,
2013-10-08 19:08:00,54.1,46.7,30.24,North,0,0.0,0.0,78,-99.99,,,-99.99,PWS SA v1.10,2013-10-08 23:08:00,
2013-10-08 19:14:00,53.7,45.7,30.24,North,0,0.0,0.0,76,-99.99,,,-99.99,PWS SA v1.10,2013-10-08 23:14:00,
2013-10-08 19:20:00,53.0,45.7,30.25,North,0,0.0,0.0,78,-99.99,,,-99.99,PWS SA v1.10,2013-10-08 23:20:00,
2013-10-08 19:26:00,52.8,45.6,30.25,North,0,0.0,0.0,78,-99.99,,,-99.99,PWS SA v1.10,2013-10-08 23:26:00,
2013-10-08 19:32:00,52.6,45.8,30.25,North,0,0.0,0.0,80,-99.99,,,-99.99,PWS SA v1.10,2013-10-08 23:32:00,
2013-10-08 19:38:00,52.5,45.8,30.26,North,0,0.0,0.0,80,-99.99,,,-99.99,PWS SA v1.10,2013-10-08 23:38:00,
2013-10-08 19:44:00,52.4,45.8,30.25,North,0,0.0,0.0,81,-99.99,,,-99.99,PWS SA v1.10,2013-10-08 23:44:00,
2013-10-08 19:50:00,52.4,47.0,30.26,North,0,0.0,0.0,85,-99.99,,,-99.99,PWS SA v1.10,2013-10-08 23:50:00,
2013-10-08 19:56:00,52.1,46.5,30.26,North,0,0.0,0.0,83,-99.99,,,-99.99,PWS SA v1.10,2013-10-08 23:56:00,
2013-10-08 20:02:00,51.9,46.0,30.26,North,0,0.0,0.0,82,-99.99,,,-99.99,PWS SA v1.10,2013-10-09 00:02:00,
2013-10-08 20:08:00,51.4,45.6,30.26,North,0,0.0,0.0,82,-99.99,,,-99.99,PWS SA v1.10,2013-10-09 00:08:00,
2013-10-08 20:14:00,51.3,45.8,30.26,North,0,0.0,0.0,84,-99.99,,,-99.99,PWS SA v1.10,2013-10-09 00:14:00,
2013-10-08 20:20:00,51.2,46.0,30.26,North,0,0.0,0.0,85,-99.99,,,-99.99,PWS SA v1.10,2013-10-09 00:20:00,
2013-10-08 20:26:00,51.2,46.0,30.26,North,0,0.0,0.0,85,-99.99,,,-99.99,PWS SA v1.10,2013-10-09 00:26:00,
2013-10-08 20:32:00,51.0,45.3,30.27,North,0,0.0,0.0,83,-99.99,,,-99.99,PWS SA v1.10,2013-10-09 00:32:00,
2013-10-08 20:38:00,51.0,44.9,30.27,North,0,0.0,0.0,81,-99.99,,,-99.99,PWS SA v1.10,2013-10-09 00:38:00,
2013-10-08 20:44:00,50.6,45.0,30.27,North,0,0.0,0.0,83,-99.99,,,-99.99,PWS SA v1.10,2013-10-09 00:44:00,
2013-10-08 20:50:00,50.4,44.9,30.28,North,0,0.0,0.0,84,-99.99,,,-99.99,PWS SA v1.10,2013-10-09 00:50:00,
2013-10-08 20:56:00,50.4,45.1,30.28,North,0,0.0,0.0,84,-99.99,,,-99.99,PWS SA v1.10,2013-10-09 00:56:00,
2013-10-08 21:02:00,50.3,45.3,30.28,North,0,0.0,0.0,85,-99.99,,,-99.99,PWS SA v1.10,2013-10-09 01:02:00,
2013-10-08 21:08:00,50.1,44.7,30.28,North,0,0.0,0.0,84,-99.99,,,-99.99,PWS SA v1.10,2013-10-09 01:08:00,
2013-10-08 21:14:00,50.1,45.3,30.28,North,0,0.0,0.0,86,-99.99,,,-99.99,PWS SA v1.10,2013-10-09 01:14:00,
2013-10-08 21:20:00,49.8,45.4,30.29,North,0,0.0,0.0,86,-99.99,,,-99.99,PWS SA v1.10,2013-10-09 01:20:00,
2013-10-08 21:26:00,49.8,45.0,30.29,North,0,0.0,0.0,86,-99.99,,,-99.99,PWS SA v1.10,2013-10-09 01:26:00,
2013-10-08 21:32:00,49.7,44.9,30.29,North,0,0.0,0.0,86,-99.99,,,-99.99,PWS SA v1.10,2013-10-09 01:32:00,
2013-10-08 21:38:00,49.4,44.8,30.29,North,0,0.0,0.0,86,-99.99,,,-99.99,PWS SA v1.10,2013-10-09 01:38:00,
2013-10-08 21:44:00,49.4,45.0,30.30,North,0,0.0,0.0,87,-99.99,,,-99.99,PWS SA v1.10,2013-10-09 01:44:00,
2013-10-08 21:50:00,49.4,45.3,30.30,North,0,0.0,0.0,88,-99.99,,,-99.99,PWS SA v1.10,2013-10-09 01:50:00,
2013-10-08 21:56:00,49.2,45.1,30.30,North,0,0.0,0.0,88,-99.99,,,-99.99,PWS SA v1.10,2013-10-09 01:56:00,
2013-10-08 22:02:00,48.7,44.3,30.30,North,0,0.0,0.0,87,-99.99,,,-99.99,PWS SA v1.10,2013-10-09 02:02:00,
2013-10-08 22:08:00,48.6,44.3,30.30,North,0,0.0,0.0,87,-99.99,,,-99.99,PWS SA v1.10,2013-10-09 02:08:00,
2013-10-08 22:14:00,48.3,44.0,30.30,North,0,0.0,0.0,88,-99.99,,,-99.99,PWS SA v1.10,2013-10-09 02:14:00,
2013-10-08 22:20:00,47.9,43.8,30.31,North,0,0.0,0.0,88,-99.99,,,-99.99,PWS SA v1.10,2013-10-09 02:20:00,
2013-10-08 22:26:00,47.7,43.8,30.30,North,0,0.0,0.0,89,-99.99,,,-99.99,PWS SA v1.10,2013-10-09 02:26:00,
2013-10-08 22:32:00,47.8,44.4,30.30,North,0,0.0,0.0,90,-99.99,,,-99.99,PWS SA v1.10,2013-10-09 02:32:00,
2013-10-08 22:38:00,47.7,43.9,30.30,North,0,0.0,0.0,89,-99.99,,,-99.99,PWS SA v1.10,2013-10-09 02:38:00,
2013-10-08 22:44:00,47.8,44.1,30.31,North,0,0.0,0.0,90,-99.99,,,-99.99,PWS SA v1.10,2013-10-09 02:44:00,
2013-10-08 22:50:00,47.9,44.5,30.31,North,0,0.0,0.0,90,-99.99,,,-99.99,PWS SA v1.10,2013-10-09 02:50:00,
2013-10-08 22:56:00,47.8,44.3,30.32,North,0,0.0,0.0,90,-99.99,,,-99.99,PWS SA v1.10,2013-10-09 02:56:00,
2013-10-08 23:02:00,47.6,44.2,30.32,North,0,0.0,0.0,90,-99.99,,,-99.99,PWS SA v1.10,2013-10-09 03:02:00,
2013-10-08 23:08:00,47.4,44.0,30.32,North,0,0.0,0.0,90,-99.99,,,-99.99,PWS SA v1.10,2013-10-09 03:08:00,
2013-10-08 23:14:00,47.1,43.5,30.32,North,0,0.0,0.0,89,-99.99,,,-99.99,PWS SA v1.10,2013-10-09 03:14:00,
2013-10-08 23:20:00,46.9,43.9,30.32,North,0,0.0,0.0,91,-99.99,,,-99.99,PWS SA v1.10,2013-10-09 03:20:00,
2013-10-08 23:26:00,46.9,44.1,30.32,North,0,0.0,0.0,92,-99.99,,,-99.99,PWS SA v1.10,2013-10-09 03:26:00,
2013-10-08 23:32:00,46.7,43.7,30.32,North,0,0.0,0.0,92,-99.99,,,-99.99,PWS SA v1.10,2013-10-09 03:32:00,
2013-10-08 23:38:00,46.6,43.8,30.32,North,0,0.0,0.0,91,-99.99,,,-99.99,PWS SA v1.10,2013-10-09 03:38:00,
2013-10-08 23:44:00,46.7,43.9,30.32,North,0,0.0,0.0,92,-99.99,,,-99.99,PWS SA v1.10,2013-10-09 03:44:00,
2013-10-08 23:50:00,46.6,43.6,30.32,North,0,0.0,0.0,92,-99.99,,,-99.99,PWS SA v1.10,2013-10-09 03:50:00,
2013-10-08 23:56:00,46.7,43.8,30.33,North,0,0.0,0.0,92,-99.99,,,-99.99,PWS SA v1.10,2013-10-09 03:56:00,